SR9WXJ Weather Reports


time (UTC)temp
C
wind
direction
speed
KPH
gust
KPH
rain 1hr
cm
rain 24hr
cm
rain mn
cm
humidity
%
barometer
mb
20260905194932 17 266 9.7 14.5 0.00 0.00 0.00 100 799.7
20260905193721 17 234 6.4 9.7 0.00 0.00 0.00 100 799.7
20260905192508 17 270 4.8 9.7 0.00 0.00 0.00 100 799.7
20260905191306 17 262 11.3 17.7 0.00 0.00 0.00 100 799.7
20260905184846 17 251 6.4 14.5 0.00 0.00 0.00 100 799.7
20260905183636 17 258 6.4 6.4 0.00 0.00 0.00 100 799.7
20260905182423 17 244 9.7 19.3 0.00 0.00 0.00 100 799.7
20260905181214 17 246 4.8 6.4 0.00 0.00 0.00 100 799.7
20260905180004 18 186 6.4 8.0 0.00 0.00 0.00 100 799.7
20260905174754 17 217 3.2 6.4 0.00 0.00 0.00 100 799.7
20260905173541 18 276 4.8 8.0 0.00 0.00 0.00 100 799.7
20260905172331 18 293 4.8 8.0 0.00 0.00 0.00 100 799.7
20260905171120 18 296 9.7 16.1 0.00 0.00 0.00 100 799.7
20260905164657 18 214 4.8 9.7 0.00 0.00 0.00 100 799.7
20260905162944 20 236 4.8 4.8 0.00 0.00 0.00 100 799.7
20260905162433 20 207 6.4 9.7 0.00 0.00 0.00 100 799.7
20260905161919 20 130 3.2 4.8 0.00 0.00 0.00 100 799.7
20260905160357 20 246 6.4 9.7 0.00 0.00 0.00 100 799.7
20260905155846 20 215 4.8 6.4 0.00 0.00 0.00 100 799.7
20260905155335 20 244 6.4 9.7 0.00 0.00 0.00 100 799.7
20260905154824 20 229 6.4 6.4 0.00 0.00 0.00 100 799.7
20260905154324 21 170 4.8 11.3 0.00 0.00 0.00 100 799.7
20260905153814 21 215 6.4 9.7 0.00 0.00 0.00 100 799.7
20260905152753 21 157 4.8 8.0 0.00 0.00 0.00 100 799.7
20260905151731 21 188 3.2 3.2 0.00 0.00 0.00 100 799.7
20260905151231 21 230 6.4 11.3 0.00 0.00 0.00 100 799.7
20260905150720 21 220 8.0 14.5 0.00 0.00 0.00 100 799.7
20260905150210 21 206 4.8 11.3 0.00 0.00 0.00 100 799.7
20260905145659 20 195 3.2 6.4 0.00 0.00 0.00 100 799.7
20260905145148 22 201 3.2 6.4 0.00 0.00 0.00 100 799.7
20260905144138 21 165 4.8 6.4 0.00 0.00 0.00 100 799.7
20260905143627 21 198 6.4 11.3 0.00 0.00 0.00 100 799.7
20260905143117 21 182 4.8 9.7 0.00 0.00 0.00 100 799.7
20260905142606 20 156 8.0 8.0 0.00 0.00 0.00 100 799.7
20260905142056 20 184 6.4 12.9 0.00 0.00 0.00 100 799.7
20260905141556 20 199 6.4 9.7 0.00 0.00 0.00 100 799.7
20260905141044 20 249 6.4 11.3 0.00 0.00 0.00 100 799.7
20260905140534 20 251 6.4 12.9 0.00 0.00 0.00 100 799.7
20260905140022 20 290 12.9 17.7 0.00 0.00 0.00 100 799.7
20260905135512 20 289 11.3 17.7 0.00 0.00 0.00 100 799.7
20260905135000 18 281 9.7 17.7 0.00 0.00 0.00 100 799.7
20260905134500 19 242 3.2 4.8 0.00 0.00 0.00 100 799.7
20260905133947 20 221 4.8 11.3 0.00 0.00 0.00 100 799.7
20260905133436 19 273 6.4 8.0 0.00 0.00 0.00 100 799.7
20260905132925 18 283 4.8 9.7 0.00 0.00 0.00 100 799.7
20260905131914 18 176 3.2 3.2 0.00 0.00 0.00 100 799.7
20260905130341 19 288 11.3 17.7 0.00 0.00 0.00 100 799.7
20260905125841 19 220 8.0 12.9 0.00 0.00 0.00 100 799.7
20260905125331 18 194 6.4 12.9 0.00 0.00 0.00 100 799.7
20260905124820 18 272 9.7 14.5 0.00 0.00 0.00 100 799.7
20260905124309 19 214 6.4 12.9 0.00 0.00 0.00 100 799.7
20260905123758 19 215 6.4 9.7 0.00 0.00 0.00 100 799.7
20260905123247 18 290 12.9 19.3 0.00 0.00 0.00 100 799.7
20260905122747 19 214 6.4 9.7 0.00 0.00 0.00 100 799.7
20260905122236 18 252 8.0 14.5 0.00 0.00 0.00 100 799.7
20260905121725 18 275 9.7 16.1 0.00 0.00 0.00 100 799.7
20260905120703 18 259 6.4 9.7 0.00 0.00 0.00 100 799.7
20260905115652 18 281 12.9 19.3 0.00 0.00 0.00 100 799.7
20260905115141 18 311 12.9 20.9 0.00 0.00 0.00 100 799.7
20260905114630 18 262 6.4 9.7 0.00 0.00 0.00 100 799.7
20260905114119 18 277 14.5 22.5 0.00 0.00 0.00 100 799.7
20260905113608 18 279 3.2 6.4 0.00 0.00 0.00 100 799.7
20260905113423 18 257 11.3 16.1 0.00 0.00 0.00 100 799.7
20260905113108 18 257 11.3 16.1 0.00 0.00 0.00 100 799.7
20260905112557 18 280 4.8 8.0 0.00 0.00 0.00 100 799.7
20260905112046 18 302 16.1 19.3 0.00 0.00 0.00 100 799.7
20260905111534 18 294 12.9 14.5 0.00 0.00 0.00 100 799.7
20260905111024 17 226 6.4 12.9 0.00 0.00 0.00 100 799.7
20260905110523 17 313 12.9 20.9 0.00 0.00 0.00 100 799.7
20260905110009 17 288 12.9 16.1 0.00 0.00 0.00 100 799.7
20260905105458 17 280 12.9 20.9 0.00 0.00 0.00 100 799.7
20260905104947 17 267 9.7 22.5 0.00 0.00 0.00 100 799.7
20260905104447 17 254 12.9 19.3 0.00 0.00 0.00 100 799.7
20260905103936 17 273 17.7 25.7 0.00 0.00 0.00 100 799.7
20260905103425 17 263 9.7 17.7 0.00 0.00 0.00 100 799.7
20260905102914 17 301 8.0 14.5 0.00 0.00 0.00 100 799.7
20260905102552 17 265 8.0 9.7 0.00 0.00 0.00 100 799.7
20260905102403 17 265 8.0 9.7 0.00 0.00 0.00 100 799.7
20260905101852 17 248 4.8 6.4 0.00 0.00 0.00 100 799.7
20260905101352 17 167 6.4 16.1 0.00 0.00 0.00 100 799.7
20260905100841 17 253 3.2 3.2 0.00 0.00 0.00 100 799.7
20260905100330 17 180 4.8 8.0 0.00 0.00 0.00 100 799.7
20260905095820 17 250 3.2 4.8 0.00 0.00 0.00 100 799.7
20260905095309 16 230 12.9 24.1 0.00 0.00 0.00 100 800.3
20260905094809 16 236 9.7 16.1 0.00 0.00 0.00 100 800.3
20260905094258 16 107 3.2 4.8 0.00 0.00 0.00 100 800.3
20260905093747 16 222 4.8 8.0 0.00 0.00 0.00 100 801.1
20260905093237 16 188 4.8 4.8 0.00 0.00 0.00 100 801.1
20260905092726 16 150 4.8 6.4 0.00 0.00 0.00 100 801.1
20260905091715 16 144 6.4 8.0 0.00 0.00 0.00 100 801.7
20260905091205 16 159 6.4 14.5 0.00 0.00 0.00 100 802.2
20260905090654 15 112 4.8 6.4 0.00 0.00 0.00 100 802.2
20260905090144 15 168 6.4 12.9 0.00 0.00 0.00 100 802.2
20260905085633 15 157 4.8 9.7 0.00 0.00 0.00 100 802.4
20260905085133 15 137 3.2 4.8 0.00 0.00 0.00 100 802.4
20260905084622 15 148 4.8 4.8 0.00 0.00 0.00 100 802.4
20260905084112 15 150 0.0 0.0 0.00 0.00 0.00 100
20260905083601 15 134 0.0 0.0 0.00 0.00 0.00 100
20260905083055 15 147 4.8 4.8 0.00 0.00 0.00 100 802.9
20260905082544 15 160 4.8 6.4 0.00 0.00 0.00 100 802.9
20260905082033 14 133 3.2 3.2 0.00 0.00 0.00 100 802.9
20260905081522 14 158 3.2 3.2 0.00 0.00 0.00 100 802.9
20260905081024 14 189 4.8 6.4 0.00 0.00 0.00 100 802.9
20260905080510 14 148 3.2 3.2 0.00 0.00 0.00 100 802.9
20260905075449 13 164 6.4 6.4 0.00 0.00 0.00 100 802.9
20260905074948 13 144 6.4 6.4 0.00 0.00 0.00 100 802.9
20260905074437 13 141 6.4 6.4 0.00 0.00 0.00 100 802.9
20260905073926 14 182 6.4 6.4 0.00 0.00 0.00 100 802.9
20260905073415 15 131 4.8 6.4 0.00 0.00 0.00 100 802.9
20260905072904 14 124 3.2 3.2 0.00 0.00 0.00 100 802.9
20260905072404 14 201 4.8 11.3 0.00 0.00 0.00 100 802.9
20260905071852 14 245 9.7 12.9 0.00 0.00 0.00 100 802.9
20260905071343 14 250 11.3 19.3 0.00 0.00 0.00 100 802.9
20260905070828 14 225 4.8 6.4 0.00 0.00 0.00 100 802.9
20260905070328 14 268 4.8 9.7 0.00 0.00 0.00 100 802.9
20260905065817 14 199 4.8 9.7 0.00 0.00 0.00 100 802.9
20260905065307 14 150 6.4 6.4 0.00 0.00 0.00 100 802.9
20260905064755 14 138 3.2 4.8 0.00 0.00 0.00 100 802.9
20260905064244 13 134 3.2 4.8 0.00 0.00 0.00 100 802.9
20260905063744 13 109 3.2 3.2 0.00 0.00 0.00 100 802.9
20260905063233 13 129 3.2 3.2 0.00 0.00 0.00 100 802.9
20260905062722 13 115 3.2 3.2 0.00 0.00 0.00 100 802.9
20260905062211 13 118 4.8 4.8 0.00 0.00 0.00 100 802.9
20260905061714 13 138 4.8 4.8 0.00 0.00 0.00 100 802.9
20260905061156 13 129 3.2 4.8 0.00 0.00 0.00 100 802.9
20260905060145 14 121 3.2 3.2 0.00 0.00 0.00 100 802.5
20260905055634 14 125 3.2 6.4 0.00 0.00 0.00 100 802.2
20260905055123 15 206 3.2 6.4 0.00 0.00 0.00 100 802.2
20260905054611 15 322 4.8 4.8 0.00 0.00 0.00 100 798.3
20260905054100 15 160 3.2 3.2 0.00 0.00 0.00 100 798.3
20260905053600 15 202 6.4 11.3 0.00 0.00 0.00 100 794.5
20260905052538 15 125 4.8 4.8 0.00 0.00 0.00 100 794.5
20260905051526 15 175 3.2 3.2 0.00 0.00 0.00 100 794.5
20260905051015 15 115 3.2 3.2 0.00 0.00 0.00 100 794.5
20260905050504 16 135 3.2 3.2 0.00 0.00 0.00 100 794.5
20260905045953 16 157 3.2 3.2 0.00 0.00 0.00 100 794.5
20260905045442 16 179 3.2 3.2 0.00 0.00 0.00 100 794.5
20260905044942 16 192 4.8 6.4 0.00 0.00 0.00 100 794.5
20260905044431 16 248 4.8 4.8 0.00 0.00 0.00 100 794.5
20260905043920 16 27 4.8 4.8 0.00 0.00 0.00 100 794.5
20260905043409 16 199 4.8 6.4 0.00 0.00 0.00 100 794.5
20260905042908 16 280 6.4 8.0 0.00 0.00 0.00 100 794.5
20260905042359 15 254 6.4 11.3 0.00 0.00 0.00 100 794.5
20260905040823 15 135 3.2 4.8 0.00 0.00 0.00 100 794.5
20260905040322 16 129 3.2 3.2 0.00 0.00 0.00 100 794.5
20260905035812 16 122 3.2 3.2 0.00 0.00 0.00 100 794.5
20260905035301 16 115 3.2 3.2 0.00 0.00 0.00 100 794.5
20260905034750 16 90 3.2 3.2 0.00 0.00 0.00 100 794.5
20260905033739 16 108 3.2 3.2 0.00 0.00 0.00 100 794.5
20260905033225 16 297 3.2 4.8 0.00 0.00 0.00 100 794.5
20260905032212 16 190 3.2 3.2 0.00 0.00 0.00 100 791.0
20260905031701 16 298 3.2 4.8 0.00 0.00 0.00 100 791.0
20260905031149 16 18 4.8 6.4 0.00 0.00 0.00 100 791.0
20260905030639 16 235 3.2 3.2 0.00 0.00 0.00 100 791.0
20260905030138 16 235 3.2 3.2 0.00 0.00 0.00 100 791.0
20260905025627 16 191 3.2 3.2 0.00 0.00 0.00 100 791.0
20260905025116 16 193 3.2 4.8 0.00 0.00 0.00 100 791.0
20260905024606 16 177 4.8 4.8 0.00 0.00 0.00 100 791.0
20260905024105 16 80 4.8 4.8 0.00 0.00 0.00 100 791.0
20260905023554 16 110 3.2 3.2 0.00 0.00 0.00 100 791.0
20260905023046 16 104 3.2 3.2 0.00 0.00 0.00 100 791.0
20260905022532 16 97 3.2 3.2 0.00 0.00 0.00 100 791.0
20260905022021 16 97 3.2 3.2 0.00 0.00 0.00 100 791.0
20260905021521 15 101 3.2 4.8 0.00 0.00 0.00 100 791.0
20260905021010 15 108 3.2 3.2 0.00 0.00 0.00 100 791.0
20260905020459 15 91 3.2 3.2 0.00 0.00 0.00 100 791.0
20260905015948 15 57 4.8 4.8 0.00 0.00 0.00 100 791.0
20260905015448 15 66 3.2 3.2 0.00 0.00 0.00 100 791.0
20260905014937 16 69 3.2 3.2 0.00 0.00 0.00 100 791.0
20260905014427 16 52 3.2 3.2 0.00 0.00 0.00 100 787.4
20260905013915 16 24 4.8 6.4 0.00 0.00 0.00 100 787.4
20260905013406 16 51 3.2 6.4 0.00 0.00 0.00 100 787.4
20260905012902 16 12 4.8 6.4 0.00 0.00 0.00 100 787.4
20260905012352 16 287 11.3 16.1 0.00 0.00 0.00 100 787.4
20260905011839 17 296 11.3 16.1 0.00 0.00 0.00 100 787.4
20260905011329 17 299 12.9 19.3 0.00 0.00 0.00 100 787.4
20260905010828 17 343 9.7 11.3 0.00 0.00 0.00 100 787.4
20260905010317 17 317 9.7 14.5 0.00 0.00 0.00 100 787.4
20260905005805 17 302 9.7 14.5 0.00 0.00 0.00 100 787.4
20260905005251 17 308 12.9 17.7 0.00 0.00 0.00 100 787.4
20260905004751 17 316 14.5 20.9 0.00 0.00 0.00 100 787.4
20260905004240 17 315 12.9 19.3 0.00 0.00 0.00 100 787.4
20260905002923 18 293 12.9 16.1 0.00 0.00 0.00 100 787.4
20260905001712 18 301 11.3 14.5 0.00 0.00 0.00 100 787.4
20260905000502 18 310 11.3 17.7 0.00 0.00 0.00 100 787.4
20260904235251 18 300 14.5 17.7 0.00 0.00 0.00 100 787.4
20260904234038 19 283 12.9 19.3 0.00 0.00 0.00 100 787.4
20260904232836 20 300 19.3 22.5 0.00 0.00 0.00 100 787.4
20260904231626 20 300 17.7 24.1 0.00 0.00 0.00 100 787.4
20260904230415 21 293 25.7 35.4 0.00 0.00 0.00 100 787.4
20260904225204 22 192 4.8 4.8 0.00 0.00 0.00 100 787.4
20260904223952 23 155 3.2 6.4 0.00 0.00 0.00 100 787.4
20260904222742 23 130 3.2 3.2 0.00 0.00 0.00 100 787.4
20260904221532 23 157 3.2 3.2 0.00 0.00 0.00 100 787.4
20260904220322 23 152 4.8 6.4 0.00 0.00 0.00 100 787.4
20260904215109 23 150 3.2 3.2 0.00 0.00 0.00 100 787.4
20260904213907 23 138 3.2 4.8 0.00 0.00 0.00 100 787.4
20260904212656 23 143 3.2 4.8 0.00 0.00 0.00 100 787.4
20260904211446 23 146 3.2 3.2 0.00 0.00 0.00 100 787.4
20260904210233 23 144 8.0 8.0 0.00 0.00 0.00 100 787.4
20260904205023 23 139 4.8 6.4 0.00 0.00 0.00 100 787.4
20260904203813 23 151 3.2 6.4 0.00 0.00 0.00 100 787.4
20260904202602 22 161 6.4 14.5 0.00 0.00 0.00 100 787.4
20260904201349 23 156 3.2 8.0 0.00 0.00 0.00 100 787.4
20260904200139 23 153 4.8 9.7 0.00 0.00 0.00 100 787.4